Weather in Boyets Kuznetsov

Russia / Primorsky Krai     42°57′09″N   133°04′03″E
В апреле 2022 года жителям России запретили посещать сайт meteo.paraplan.net по решению Генеральной прокуратуры. Аудитория сайта уменьшилась в 10 раз. Владельцы сайта не видят смысла в поддержке погодного сервера в таких условиях. Сайт будет закрыт в октябре.
temp.,
°C
wind,
m/s
gust,
m/s
humid.,
%
clouds,
%
prec.,
mm/h
press.,
hPa
HPBL,
m
29 september, thu
thu2901:00+13n22900 0.0 101036
04:00+13nne34910 0.0 101064
07:00+12nne24924 0.0 101268
10:00+19nne247085 0.0 1012263
13:00+25nne11505 0.0 1012879
16:00+23ssw33580 0.0 1012661
19:00+16ssw11880 0.0 101314
22:00+14e01910 0.0 101411
30 september, fri
fri3001:00+12ese01935 0.0 101411
04:00+12ne11920 0.0 101411
07:00+11nne11920 0.0 101510
10:00+18ssw11680 0.0 1014287
13:00+22ssw24520 0.0 1013609
16:00+22ssw245416 0.0 1012482
19:00+14ssw2292100 0.0 101318
22:00+13s11966 0.0 101418
1 october, sat
sat101:00+12se11940 0.0 101414
04:00+12se019120 0.0 101411
07:00+12ne11900 0.0 101510
10:00+19nne01695 0.0 1015284
13:00+25wnw13515 0.0 10141232
16:00+24nw2452100 0.0 10141386
19:00+18nnw11810 0.0 101713
22:00+15nne2392100 0.0 101947
2 october, sun
sun201:00+14nne23951 0.0 102059
04:00+13ne119517 0.0 102118
07:00+13ene11977 0.0 102214
10:00+18sse1273100 0.0 1022413
13:00+20sse2360100 0.0 1021775
16:00+18sse2368100 0.0 1020543
19:00+14se1288100 0.0 102043
22:00+12ese1192100 0.0 102137
3 october, mon
mon301:00+12e1192100 0.0 102033
04:00+13e1193100 0.0 101840
07:00+13ese1297100 0.4 101868
10:00+15se1389100 0.5 1016150
13:00+16s1382100 0.0 1014230
16:00+15ssw1289100 0.1 1012107
19:00+14wsw1193100 0.0 101256
22:00+14se0096100 0.1 101119